Reflectivity
-20 -20 -20 -20 -20 -20 -20 -20 -20 -20 -20 -20 -20 -20 -20 -20 -20 -20 -20 -20 -20 -20 -20 -20 -20 -20 -20
-20 -20 -20 -20 -20 -20 -20 -20 -20 -20 -20 -20 -20 -20 -20 -20 -20 -20 -20 -20 -20 -20 -20 -20 -20 -5 -19
-20 -20 -20 -20 -20 -20 -20 -20 -20 -20 -20 -20 -20 -20 -20 -20 -20 -20 -20 -20 -20 -20 -20 -20 -20 -20 -20
-20 -20 -20 -20 -20 -20 -20 -20 -20 -20 -20 -20 -20 -20 -20 -20 -20 -20 -20 -20 -20 -16 -12 -7 -20 -20 -20
-20 -20 -20 -20 -20 -20 -20 -20 -20 -20 -20 -20 -20 -20 -20 -20 -20 -20 -20 -20 -20 -20 -20 -17 -4 -20 -20
-20 -20 -20 -20 -20 -20 -20 -20 -20 -20 -20 -20 -20 -20 -20 -20 -20 -20 -20 -20 -20 -20 -20 -20 -20 -20 -2
-20 -20 -20 -20 -20 -20 -20 -20 -20 -20 -20 -20 -20 -20 -20 -20 -20 -20 -20 -20 -20 -20 -20 -20 -20 -20 -20
-20 -20 -20 -20 -20 -20 -20 -20 -20 -20 -20 -20 -20 -20 -20 -20 -20 -20 -20 -20 -20 -20 -20 -20 -20 -20 -20
-20 -20 -20 -20 -20 -20 -20 -20 -20 -20 -20 -20 -20 -20 -20 -20 -20 -18 -20 -20 -20 -20 -20 -20 -20 -20 -20
-20 -20 -20 -20 -20 -20 -20 -20 -20 -20 -20 -20 -20 -20 -20 -20 -20 -20 -20 -20 -20 -20 -20 -20 -20 -20 -20
-20 -20 -20 -20 -20 -20 -20 -20 -20 -20 -20 -20 -20 -20 -20 -20 -20 -20 -20 -20 -20 -20 -20 -20 -20 -20 -20
-20 -20 -20 -20 -20 -20 -20 -20 -20 -20 -20 -20 -20 -20 -20 -20 -20 -20 -20 -20 -20 -20 -20 -20 -20 -20 -20
-20 -20 -20 -20 -20 -20 -20 -20 -20 -20 -20 -20 -20 -20 -20 -20 -20 -20 -20 -20 -20 -20 -20 -20 -20 -20 -20
-20 -20 -20 -20 -20 -20 -20 -20 -20 -20 -20 -20 -20 -20 -20 -20 -20 -20 -20 -20 -20 -20 -20 -20 -20 -20 -20
-20 -20 -20 -20 -20 -20 -20 -20 -20 -20 -20 -20 -20 -20 -20 -20 -20 -20 -20 -20 -20 -20 -20 -20 -20 -20 -20
-20 -20 -20 -20 -20 -20 -20 -20 -20 -20 -20 -20 -20 -20 -20 -20 -20 -20 -20 -20 -20 -20 -20 -20 -20 -20 -20
-20 -20 -20 -20 -20 -20 -20 -20 -20 -20 -20 -20 -20 -20 -20 -20 -20 -20 -20 -20 -20 -20 -20 -20 -20 -20 -20
Wind_Speed
2 4 3 5 5 5 5 5 5 10 10 10 10 10 10 10 10 10 9 9 9 10 11 11 12 13 14
5 3 3 4 4 5 4 4 5 9 11 11 10 9 8 9 9 9 8 8 8 9 10 10 11 13 14
7 3 2 3 4 4 4 5 5 10 10 9 8 8 8 9 8 8 8 9 8 8 8 9 10 12 13
7 5 3 3 3 4 3 3 3 3 5 6 6 8 8 8 8 8 8 9 9 9 8 8 7 10 12
7 5 4 4 5 3 3 3 2 2 2 2 3 3 4 6 6 8 7 8 9 9 10 10 10 10 11
5 7 5 4 4 3 3 2 2 0 3 2 2 2 3 4 10 8 7 6 8 10 11 12 12 12 13
7 6 7 5 6 5 3 2 2 1 2 1 1 3 3 5 9 5 6 9 10 11 12 13 14 15 15
7 6 6 7 5 4 4 3 1 1 1 2 0 3 5 5 4 3 6 9 11 12 13 14 15 16 16
13 13 12 10 7 5 3 2 1 1 1 2 1 4 4 3 2 5 7 12 13 12 15 17 16 16 11
9 9 7 8 7 2 4 3 2 1 2 2 1 3 3 1 1 4 6 12 13 16 19 17 16 8 7
6 5 4 4 3 2 2 2 3 2 2 1 1 1 2 4 5 6 7 7 8 11 13 14 13 13 10
5 4 3 3 3 3 4 3 1 1 1 0 2 3 3 4 6 5 7 9 8 8 7 9 13 14 14
5 3 3 3 4 3 3 2 1 2 3 3 4 4 3 5 6 6 8 5 7 5 6 7 8 8 8
4 3 3 3 3 3 2 2 2 3 1 2 2 3 4 6 7 9 8 6 6 8 7 8 7 7 8
4 4 4 4 4 4 3 3 3 3 4 3 4 5 6 8 7 8 8 8 7 8 9 8 9 9 9
4 4 5 6 6 4 4 4 5 5 5 4 3 3 2 5 14 8 7 7 7 8 8 10 10 9 9
6 6 6 6 8 6 5 5 5 5 6 4 4 3 5 6 3 12 9 7 7 9 8 9 11 10 10
Wind_Direction
111 134 105 111 93 85 76 66 64 77 80 75 73 66 59 47 34 27 24 20 18 18 14 11 7 5 1
135 134 117 106 105 96 76 61 58 79 78 72 62 49 40 32 24 20 15 10 9 7 7 7 4 3 358
131 122 116 147 113 95 78 77 68 72 69 54 42 34 29 25 22 18 5 2 355 351 352 352 3 358 354
121 128 133 120 127 135 112 80 91 55 47 36 29 31 30 21 17 3 359 354 347 343 332 357 353 347 350
131 129 137 147 157 146 119 127 108 37 356 18 7 23 28 18 356 351 349 348 349 345 343 337 341 339 338
143 144 143 144 141 135 131 158 168 139 346 345 347 18 22 356 345 331 328 345 8 11 2 349 340 336 332
141 143 148 160 143 135 133 138 152 101 313 287 320 327 338 333 334 334 60 36 11 355 344 334 328 326 324
122 133 125 140 135 130 133 123 180 228 217 276 48 309 325 334 344 76 35 6 351 348 345 335 326 320 317
114 121 129 138 136 133 139 149 196 168 119 268 14 322 319 324 360 11 349 340 336 335 333 326 320 319 314
110 96 84 135 140 140 159 178 177 210 140 293 294 350 323 296 283 322 326 325 325 323 320 317 320 313 312
128 126 129 130 127 131 158 172 176 219 106 7 232 275 250 295 293 298 301 299 307 308 310 313 313 316 313
147 157 159 150 145 144 132 123 109 249 21 277 246 251 276 288 282 302 298 299 294 298 306 304 306 307 305
176 175 174 164 152 149 134 123 158 253 275 262 255 269 255 252 281 295 309 301 296 283 303 304 304 305 304
186 169 155 164 179 178 193 194 262 277 232 263 271 270 263 258 269 277 276 277 288 300 299 301 296 294 296
178 176 186 188 199 194 208 201 232 269 285 280 289 275 262 259 268 259 271 271 275 289 300 300 298 296 295
192 195 201 201 210 208 204 222 246 259 270 283 286 304 288 258 230 264 273 274 286 291 292 290 290 295 294
201 207 211 212 220 218 218 229 241 250 260 263 259 256 277 272 271 271 272 281 288 288 287 284 288 290 293